User: anonymous   Login
Location: *
(53.9002°N, 27.5624°E)
Time: 11:42:39
(UTC+00:00)
Language:

CZ-2D R/B - Orbit

View from above orbital plane
View from above orbital plane
View from above satellite
View from above satellite

Ground track
Ground track

The orbit data is extracted from the following two-line orbital elements,

1 28738U 05024B   20018.55698567 +.00000243 +00000-0 +17795-4 0  9993
2 28738 097.3966 046.0196 0011646 353.3006 006.8067 15.11945406798607
Epoch (UTC): 18 January 2020 13:22:03
Eccentricity: 0.0011646
inclination: 97.3966°
perigee height: 522 km
apogee height: 538 km
right ascension of ascending node: 46.0196°
argument of perigee: 353.3006°
revolutions per day: 15.11945406
mean anomaly at epoch: 6.8067°
orbit number at epoch: 79860

The dashed part of the orbit path shows where the satellite is in the earth's shadow,  

DLR